Location: Orange Harbor Mobile Home Park
(26.6923°N, 81.7937°W)
Time: 22:27:39
(UTC+00:00)

Meteor 1-10 Rocket - Pass Details

Date: 19 September 2020
Orbit: 836 x 910 km, 81.3° (Epoch: 24 October)

Event Time Altitude Azimuth Distance (km) Brightness Sun altitude
Exits shadow 09:25:19 41° 193° (SSW) 1,241 4.8 -24.9°
Maximum altitude 09:27:26 82° 276° (W) 884 4.1 -24.5°
Drops below altitude 10° 09:33:15 10° 5° (N) 2,550 6.9 -23.2°
Sets 09:35:44 0° 6° (N) 3,502 7.7 -22.7°
